Lexington Weather

Lexington, Massachusetts, USA

34°F
10/30/2020 7:08am 
  • Lexington Conditions: Light snow, Mist, Overcast
  • Temperature: 33.8°F / 1.0°CColder 1.3°F than last hour.
  • Dew Point: 33.1°FDecreased 1.2°Fsince last hour.
  • Relative Humidity: 97
  • Wind: Wind from NNE NNE 1 mph, 10-min avg: 2 mph, gust: 4 mph
  • Barometer: 29.76 in Steady
  • Visibility: 3 miles
  • Rain Today: 0.09 in
  •   
Southeast Middlesex County - Winter Weather Advisory
 - SEE ALL NEARBY ALERTS -

Regional Weather Roundup
for Boston / Norton, MA

        
000
ASUS41 KBOX 261804
RWRBOX

REGIONAL WEATHER ROUNDUP
NATIONAL WEATHER SERVICE BOSTON/NORTON MA
200 PM EDT MON OCT 26 2020

NOTE:  "FAIR" INDICATES FEW OR NO CLOUDS BELOW 12,000 FEET WITH NO 
SIGNIFICANT WEATHER AND/OR OBSTRUCTIONS TO VISIBILITY.

MAZALL-261900-
EASTERN MASSACHUSETTS
  
CITY           SKY/WX    TMP DP  RH WIND       PRES   REMARKS
BOSTON         CLOUDY    52  46  80 E10       30.22F                  
6HR MIN TEMP:  50; 6HR MAX TEMP:  53; 6HR PCP: TRACE;                

BEVERLY        CLOUDY    52  46  80 E8        30.21F                  
LAWRENCE       CLOUDY    47  45  93 E6        30.23F                  
BEDFORD        CLOUDY    49  47  93 NE3       30.20F                  
BLUE HILL        N/A     51  46  83 E6        30.19F                  
NORWOOD        CLOUDY    54  47  77 E3        30.20F                  
MARSHFIELD     CLOUDY    57  50  77 E6        30.20F                  
PLYMOUTH       CLOUDY    55  48  77 E8        30.20S                  
TAUNTON        CLOUDY    57  48  72 E3        30.20R                  
NEW BEDFORD    CLOUDY    54  52  93 N5        30.19S                  
$$

MAZALL-261900-
CAPE COD AND THE ISLANDS
  
CITY           SKY/WX    TMP DP  RH WIND       PRES   REMARKS
FALMOUTH       CLOUDY    54  54 100 E9        30.18F                  
HYANNIS        CLOUDY    57  51  80 VRB7      30.16F                  
CHATHAM        LGT RAIN  57  50  77 E9        30.18F                  
PROVINCETOWN   CLOUDY    56  51  84 E9        30.20F                  
NANTUCKET      CLOUDY    57  51  80 E13G22    30.16F                  
MARTHAS VNYRD  CLOUDY    57  53  86 E13       30.17F                  
$$
 
MAZALL-261900-
CENTRAL AND WESTERN MASSACHUSETTS
  
CITY           SKY/WX    TMP DP  RH WIND       PRES   REMARKS
WORCESTER      CLOUDY    44  42  93 E7        30.18F FOG              
6HR MIN TEMP:  40; 6HR MAX TEMP:  45;                                

FITCHBURG      LGT RAIN  45  50 100 NE3       30.21F                  
ORANGE         CLOUDY    47  45  93 CALM      30.21S                  
SPRINGFIELD    DRIZZLE   47  45  90 NE6       30.18F FOG              
WESTFIELD      CLOUDY    46  45  96 N7        30.19F FOG              
NORTH ADAMS    CLOUDY    46  42  86 E13G22    30.16F                  
PITTSFIELD     CLOUDY    46  44  93 NE7       30.15F FOG              
$$
 
RIZALL-261900-
RHODE ISLAND
  
CITY           SKY/WX    TMP DP  RH WIND       PRES   REMARKS
PROVIDENCE     CLOUDY    56  48  74 VRB5      30.20F                  
6HR MIN TEMP:  49; 6HR MAX TEMP:  56;                                

NEWPORT        CLOUDY    53  51  93 VRB6      30.18F                  
BLOCK ISLAND   CLOUDY    56  52  86 E12G18    30.16F                  
SMITHFIELD     CLOUDY    53  48  83 VRB3      30.20F                  
WESTERLY       CLOUDY    55  50  83 NE9       30.19F                  
$$
 
CTZALL-261900-
CONNECTICUT
  
CITY           SKY/WX    TMP DP  RH WIND       PRES   REMARKS
BRADLEY INTL   CLOUDY    49  45  86 N6        30.18F                  
6HR MIN TEMP:  44; 6HR MAX TEMP:  49; 6HR PCP: TRACE;                

HARTFORD       CLOUDY    51  44  77 NE5       30.18F                  
BRIDGEPORT     CLOUDY    53  49  86 NE12      30.16F                  
DANBURY        CLOUDY    51  47  86 NE5       30.16F                  
GROTON         CLOUDY    55  50  83 E9        30.17F                  
NEW HAVEN      CLOUDY    55  51  86 N8        30.16F FOG              
CHESTER        FOG       54  52  94 E5        30.17F VSB 1            
MERIDEN        CLOUDY    52  45  77 VRB3      30.18F                  
WILLIMANTIC    CLOUDY    53  45  74 NE6       30.18F                  
OXFORD         CLOUDY    49  47  93 VRB3      30.17F                  
$$

MEZ002-015-021-024-NHZ003-005-008-011-012-014-VTZ005-008-261900-
NORTHERN NEW ENGLAND
  
CITY           SKY/WX    TMP DP  RH WIND       PRES   REMARKS
PORTLAND ME    CLOUDY    46  41  82 VRB3      30.24F                  
6HR MIN TEMP:  37; 6HR MAX TEMP:  46; 6HR PCP:  0.01;                

BANGOR ME      CLOUDY    44  34  67 SE5       30.28F                  
CONCORD NH     CLOUDY    43  41  93 N3        30.22F FOG              
MANCHESTER NH  CLOUDY    46  43  89 NE5       30.20F FOG              
NASHUA NH      LGT RAIN  45  45 100 N3        30.22F FOG              
PORTSMOUTH NH  CLOUDY    45  43  93 NW7       30.21                   
JAFFREY NH     CLOUDY    43  41  93 N5        30.19F                  
KEENE NH       LGT RAIN  44  42  93 CALM      30.20F                  
BURLINGTON VT  DRIZZLE   46  42  86 S13G18    30.11F                  
MT. WASHINGTON NOT AVBL                                               
$$

NYZ052-076-261900-
EASTERN NEW YORK
  
CITY           SKY/WX    TMP DP  RH WIND       PRES   REMARKS
ALBANY         CLOUDY    45  45 100 SE7       30.14F                  
6HR MIN TEMP:  38; 6HR MAX TEMP:  45; 6HR PCP:  0.07;                

NEW YORK CITY  LGT RAIN  56  53  90 NE9       30.14F FOG              
6HR MIN TEMP:  54; 6HR MAX TEMP:  57; 6HR PCP:  0.02;                

$$
 
ANZALL-261900-
MARINE OBSERVATIONS
  
STATION/POSITION TIME  TEMP    WIND        PRES    VSBY  WAVE
                       AIR SEA DIR/SP/G                  HT/PER
                 (UTC) (F)     (DEG/KT/KT) (MB)    (MI)  (FT/S)
BOSTON BUOY      1750   53 56   80/  8/ 10 1022.3F         5/ 6
BUZZARDS BAY     1700           80/ 15/ 18 1022.8F
NANTUCKET SOUND  1750      61  100/ 16/ 19   N/A           2/ 3
MASS BAY-STELLWA 1704   53 56  110/ 10/ 12 1023.0F  1 7/8  5/11
ISLE OF SHOALS   1700   49      80/ 15/ 18 1023.7F
S OF BLOCK IS    1726      62                N/A           5/ 6
$$

......................KEY.........................
  SKY/WX - SKY CONDITION/PRESENT WEATHER
  TMP    - TEMPERATURE IN FAHRENHEIT
  DWPT   - DEWPOINT IN FAHRENHEIT
  RH     - RELATIVE HUMIDITY IN PERCENT
  WIND   - DIRECTION AND SPEED IN MPH
  PRES   - MEAN SEA LEVEL PRESSURE IN INCHES OF HG
  WCI    - WIND CHILL INDEX
  VSB    - VISIBILITY IN MILES
  HX     - HEAT INDEX
  TC     - TEMPERATURE IN CELSIUS
  VRB    - VARIABLE WIND DIRECTION
  N/A    - NOT AVAILABLE
  
      

Other recent Regional Weather Roundups

Fri Oct 30, 6:04am

Fri Oct 30, 5:04am

Fri Oct 30, 4:04am

Fri Oct 30, 3:04am

Fri Oct 30, 2:04am

Fri Oct 30, 1:04am

Fri Oct 30, 12:04am

Thu Oct 29, 11:04pm

Thu Oct 29, 10:04pm

Thu Oct 29, 9:04pm

Thu Oct 29, 8:04pm

Thu Oct 29, 7:04pm

Thu Oct 29, 6:04pm

Thu Oct 29, 5:05pm

Thu Oct 29, 4:05pm

Thu Oct 29, 3:05pm

Thu Oct 29, 2:04pm

Thu Oct 29, 1:04pm

Thu Oct 29, 12:04pm

Thu Oct 29, 11:04am

Thu Oct 29, 10:04am

Thu Oct 29, 9:04am

Thu Oct 29, 8:04am

Thu Oct 29, 7:04am

Thu Oct 29, 6:04am

Thu Oct 29, 5:04am

Thu Oct 29, 4:04am

Thu Oct 29, 3:04am

Thu Oct 29, 2:04am

Thu Oct 29, 1:05am

Thu Oct 29, 12:04am

Wed Oct 28, 11:05pm

Wed Oct 28, 10:04pm

Wed Oct 28, 9:04pm

Wed Oct 28, 8:04pm

Wed Oct 28, 7:05pm

Wed Oct 28, 6:04pm

Wed Oct 28, 5:05pm

Wed Oct 28, 4:04pm

Wed Oct 28, 3:04pm

Wed Oct 28, 2:04pm

Wed Oct 28, 1:05pm

Wed Oct 28, 12:05pm

Wed Oct 28, 11:05am

Wed Oct 28, 10:04am

Wed Oct 28, 9:04am

Wed Oct 28, 8:04am

Wed Oct 28, 7:04am

Wed Oct 28, 6:04am

Wed Oct 28, 5:05am

Wed Oct 28, 4:04am

Wed Oct 28, 3:04am

Wed Oct 28, 2:04am

Wed Oct 28, 1:05am

Wed Oct 28, 12:04am

Tue Oct 27, 11:04pm

Tue Oct 27, 10:04pm

Tue Oct 27, 9:05pm

Tue Oct 27, 8:04pm

Tue Oct 27, 7:04pm

Tue Oct 27, 6:04pm

Tue Oct 27, 5:04pm

Tue Oct 27, 4:05pm

Tue Oct 27, 3:04pm

Tue Oct 27, 2:04pm

Tue Oct 27, 1:04pm

Tue Oct 27, 12:04pm

Tue Oct 27, 11:04am

Tue Oct 27, 10:04am

Tue Oct 27, 9:04am

Tue Oct 27, 8:04am

Tue Oct 27, 7:04am

Tue Oct 27, 6:04am

Tue Oct 27, 5:04am

Tue Oct 27, 4:04am

Tue Oct 27, 3:04am

Tue Oct 27, 2:05am

Tue Oct 27, 1:04am

Tue Oct 27, 12:04am

Mon Oct 26, 11:05pm

Mon Oct 26, 10:04pm

Mon Oct 26, 9:04pm

Mon Oct 26, 8:04pm

Mon Oct 26, 7:04pm

Mon Oct 26, 6:04pm

Mon Oct 26, 5:04pm

Mon Oct 26, 4:05pm

Mon Oct 26, 1:04pm

Mon Oct 26, 12:04pm

Mon Oct 26, 11:05am

Mon Oct 26, 10:04am

Mon Oct 26, 9:04am

Mon Oct 26, 8:04am

Mon Oct 26, 7:04am

Mon Oct 26, 6:04am

Mon Oct 26, 5:04am

Mon Oct 26, 4:04am

Mon Oct 26, 3:04am

Mon Oct 26, 2:04am

Mon Oct 26, 1:04am

Mon Oct 26, 12:04am

Sun Oct 25, 11:05pm

Sun Oct 25, 10:04pm

Sun Oct 25, 9:04pm

Sun Oct 25, 8:04pm

Sun Oct 25, 7:04pm

Sun Oct 25, 6:04pm

Sun Oct 25, 5:04pm

Sun Oct 25, 4:05pm

Sun Oct 25, 3:04pm

Sun Oct 25, 2:04pm

Sun Oct 25, 1:04pm

Sun Oct 25, 12:04pm

Sun Oct 25, 11:04am

Sun Oct 25, 10:04am

Sun Oct 25, 9:04am

Sun Oct 25, 8:04am

Sun Oct 25, 7:04am

Sun Oct 25, 6:04am

Sun Oct 25, 5:04am

Sun Oct 25, 4:04am

Sun Oct 25, 3:04am

Sun Oct 25, 2:04am

Sun Oct 25, 1:05am

Sun Oct 25, 12:04am

Sat Oct 24, 11:04pm

Sat Oct 24, 10:04pm

Sat Oct 24, 9:04pm

Sat Oct 24, 8:04pm

Sat Oct 24, 7:04pm

Sat Oct 24, 6:04pm

Sat Oct 24, 5:05pm

Sat Oct 24, 4:04pm

Sat Oct 24, 3:04pm

Sat Oct 24, 2:04pm

Sat Oct 24, 1:05pm

Sat Oct 24, 12:04pm

Sat Oct 24, 11:05am

Sat Oct 24, 10:05am

Sat Oct 24, 9:04am

Sat Oct 24, 8:04am

Sat Oct 24, 7:04am

Sat Oct 24, 6:04am

Sat Oct 24, 5:04am

Sat Oct 24, 4:04am

Sat Oct 24, 3:04am

Sat Oct 24, 2:04am

Sat Oct 24, 1:05am

Sat Oct 24, 12:04am

Fri Oct 23, 11:04pm

Fri Oct 23, 10:04pm

Fri Oct 23, 9:04pm

Fri Oct 23, 8:05pm

Fri Oct 23, 7:04pm

Fri Oct 23, 6:04pm

Fri Oct 23, 5:05pm

Fri Oct 23, 4:04pm

Fri Oct 23, 3:04pm

Fri Oct 23, 2:05pm

Fri Oct 23, 1:04pm

Fri Oct 23, 12:04pm

Fri Oct 23, 11:04am

Fri Oct 23, 10:04am

Fri Oct 23, 9:04am

Fri Oct 23, 8:04am

Fri Oct 23, 7:04am

Meta data:

ID: 9e6697fd-d9c0-46d6-96b2-288dc8fd7ddf
Link: https://api.weather.gov/products/9e6697fd-d9c0-46d6-96b2-288dc8fd7ddf